[Date Prev][Date Next][Thread Prev][Thread Next] - [Date Index][Thread Index][Author Index]

2 Line ISS Keps 7-29



ISS
1 25544U 98067A   05210.01205958  .00012067  00000-0  94724-4 0   186
2 25544 051.6445 046.7185 0002760 162.0645 331.2009 15.72014222382262
----
Via the sarex mailing list at AMSAT.ORG courtesy of AMSAT-NA.
To unsubscribe, send "unsubscribe sarex" to Majordomo@amsat.org



AMSAT Top AMSAT Home